Location: Ravencliff
(37.6982°N, 81.4812°W)
Time: 19:24:12
(UTC+00:00)

ACS3 Solar Sail - Pass Details

Date: 25 April 2026
Orbit: 894 x 947 km, 97.2° (Epoch: 12 May)

Event Time Altitude Azimuth Distance (km) Brightness Sun altitude
Rises 05:12:23 0° 29° (NNE) 3,564 5.4 -39.0°
Reaches altitude 10° 05:15:37 10° 47° (NE) 2,627 4.4 -39.1°
Enters shadow 05:16:58 14° 59° (ENE) 2,336 4.0 -39.1°
